Flag for French Southern Territories

Past Weather in Port-aux-Francais, French Southern Territories — Yesterday and Last 2 Weeks

Now
36 °F

Chilly.


Feels Like: 24 °F
Forecast: 38 / 31 °F
Wind: 24 mph from West

Location: Port-Aux-Francais Iles Kerguelen
Current Time: Sep 25, 2020 at 9:23:10 pm
Latest Report: Sep 25, 2020 at 8:00 pm
Visibility: N/A
Pressure29.15 "Hg
Humidity: 75%
Dew Point: 29 °F
Location of Port-aux-FrancaisLocation

Past Weather in Port-aux-Francais — Graph

°F

Port-aux-Francais Temperature Yesterday

Maximum temperature yesterday: 42 °F (at 2:00 pm)
Minimum temperature yesterday: 34 °F (at 3:00 am)
Average temperature yesterday: 38 °F

High & Low Weather Summary for the Past Weeks

 TemperatureHumidityPressure
High47 °F (Sep 22, 2:00 pm)98% (Sep 24, 6:00 am)30.10 "Hg (Sep 24, 6:00 am)
Low27 °F (Sep 19, 11:00 pm)44% (Sep 11, 6:00 pm)28.85 "Hg (Sep 19, 4:00 am)
Average36 °F74%29.48 "Hg
* Reported Sep 10 8:00 pm — Sep 25 8:00 pm, Port-aux-Francais. Weather by CustomWeather, © 2020

Note: Actual official high and low records may vary slightly from our data, if they occured in-between our weather recording intervals... More about our weather records

Port-aux-Francais Weather History for the Previous 24 Hours

Scroll right to see more
 ConditionsComfort  
Time TempWeatherWind HumidityBarometerVisibility
8:00 pm
Fri, Sep 25
36 °FChilly.24 mph75%29.15 "HgN/A
7:00 pm37 °FChilly.25 mph73%29.12 "HgN/A
6:00 pm38 °FChilly.25 mph75%29.09 "HgN/A
5:00 pm41 °FPartly sunny.20 mph74%29.09 "Hg16 mi
4:00 pm42 °FQuite cool.26 mph67%29.06 "HgN/A
3:00 pm43 °FQuite cool.28 mph66%29.06 "HgN/A
2:00 pm43 °FQuite cool.25 mph66%29.06 "HgN/A
1:00 pm43 °FQuite cool.23 mph68%29.06 "HgN/A
12:00 pm42 °FQuite cool.12 mph74%29.06 "HgN/A
11:00 am39 °FChilly.13 mph80%29.06 "HgN/A
10:00 am40 °FChilly.12 mph77%29.06 "HgN/A
9:00 am39 °FChilly.15 mph81%29.06 "HgN/A
8:00 am38 °FChilly.12 mph79%29.06 "HgN/A
7:00 am35 °FChilly.9 mph82%29.06 "HgN/A
6:00 am35 °FChilly.12 mph81%29.03 "HgN/A
5:00 am35 °FChilly.8 mph83%29.03 "HgN/A
4:00 am35 °FChilly.3 mph83%29.03 "HgN/A
3:00 am34 °FChilly.3 mph88%29.03 "HgN/A
2:00 am35 °FChilly.5 mph87%29.00 "HgN/A
1:00 am36 °FChilly.8 mph91%29.00 "HgN/A
12:00 am37 °FChilly.12 mph93%29.00 "HgN/A
11:00 pm
Thu, Sep 24
37 °FChilly.8 mph95%29.00 "HgN/A
10:00 pm37 °FChilly.6 mph97%29.00 "HgN/A
9:00 pm38 °FChilly.9 mph96%28.97 "HgN/A
Weather by CustomWeather, © 2020

See weather overview